• In Hungary
  • List of Countries
  • For 7 days
  • Water Temperature
  • Satellite Maps
  • Weather Map
  • News
  • Weather Widgets
  • user-avatar
    Login

    Hourly Weather Vatican

    Today, 21 February, Wednesday

    Time Temperature Precipitation Wind Pressure Humidity
    00:00 +7°C° 0 mm 3 mps 751 mmHg 74%
    01:00 +7°C° 0 mm 3 mps 750 mmHg 75%
    02:00 +7°C° 0.1 mm 3 mps 750 mmHg 75%
    03:00 +5°C° 0.1 mm 3 mps 750 mmHg 75%
    04:00 +5°C° 0.1 mm 3 mps 750 mmHg 75%
    05:00 +5°C° 0.1 mm 3 mps 750 mmHg 74%
    06:00 +5°C° 0.1 mm 3 mps 750 mmHg 74%
    07:00 +5°C° 0 mm 4 mps 749 mmHg 71%
    08:00 +7°C° 0 mm 3 mps 749 mmHg 68%
    09:00 +8°C° 0 mm 3 mps 749 mmHg 65%
    10:00 +9°C° 0 mm 3 mps 749 mmHg 63%
    11:00 +10°C° 0 mm 3 mps 749 mmHg 59%
    12:00 +12°C° 0 mm 2 mps 749 mmHg 56%
    13:00 +11°C° 0 mm 4 mps 749 mmHg 56%
    14:00 +11°C° 0.2 mm 3 mps 749 mmHg 57%
    15:00 +11°C° 0.2 mm 3 mps 749 mmHg 57%
    16:00 +11°C° 0.2 mm 3 mps 749 mmHg 58%
    17:00 +10°C° 0.2 mm 3 mps 749 mmHg 63%
    18:00 +9°C° 0.2 mm 3 mps 749 mmHg 67%
    19:00 +9°C° 0.2 mm 3 mps 749 mmHg 72%
    20:00 +8°C° 0.3 mm 2 mps 749 mmHg 74%
    21:00 +9°C° 0.3 mm 1 mps 749 mmHg 76%
    22:00 +9°C° 0.3 mm 1 mps 749 mmHg 79%
    23:00 +9°C° 0.1 mm 1 mps 749 mmHg 79%

    Tomorrow, 22 February, Thursday

    Time Temperature Precipitation Wind Pressure Humidity
    00:00 +9°C° 0.1 mm 1 mps 749 mmHg 79%
    01:00 +9°C° 0.1 mm 1 mps 749 mmHg 79%
    02:00 +7°C° 0.1 mm 2 mps 749 mmHg 80%
    03:00 +7°C° 0.1 mm 2 mps 749 mmHg 81%
    04:00 +7°C° 0.1 mm 3 mps 749 mmHg 82%
    05:00 +7°C° 0.2 mm 3 mps 749 mmHg 82%
    06:00 +7°C° 0.2 mm 3 mps 749 mmHg 82%
    07:00 +7°C° 0.2 mm 3 mps 749 mmHg 83%
    08:00 +7°C° 0.1 mm 4 mps 749 mmHg 79%
    09:00 +8°C° 0.1 mm 4 mps 749 mmHg 75%
    10:00 +9°C° 0.1 mm 5 mps 749 mmHg 71%
    11:00 +9°C° 0.5 mm 5 mps 749 mmHg 70%
    12:00 +10°C° 0.5 mm 5 mps 749 mmHg 70%
    13:00 +10°C° 0.5 mm 5 mps 749 mmHg 69%
    14:00 +9°C° 1.2 mm 5 mps 749 mmHg 73%
    15:00 +9°C° 1.2 mm 5 mps 749 mmHg 77%
    16:00 +8°C° 1.2 mm 5 mps 748 mmHg 81%
    17:00 +8°C° 1.7 mm 5 mps 748 mmHg 81%
    18:00 +8°C° 1.7 mm 6 mps 748 mmHg 81%
    19:00 +8°C° 1.7 mm 6 mps 748 mmHg 82%
    20:00 +8°C° 0.6 mm 6 mps 748 mmHg 82%
    21:00 +8°C° 0.6 mm 6 mps 748 mmHg 82%
    22:00 +8°C° 0.6 mm 6 mps 748 mmHg 82%
    23:00 +8°C° 0.2 mm 5 mps 749 mmHg 82%

    Day after tomorrow, 23 February, Friday

    Time Temperature Precipitation Wind Pressure Humidity
    00:00 +8°C° 0.2 mm 5 mps 749 mmHg 82%
    01:00 +8°C° 0.2 mm 5 mps 749 mmHg 83%
    02:00 +8°C° 0.1 mm 5 mps 749 mmHg 83%
    03:00 +8°C° 0.1 mm 5 mps 749 mmHg 83%
    04:00 +7°C° 0.1 mm 4 mps 749 mmHg 83%
    05:00 +7°C° 0.1 mm 4 mps 749 mmHg 83%
    06:00 +7°C° 0.1 mm 4 mps 749 mmHg 82%
    07:00 +7°C° 0.1 mm 4 mps 749 mmHg 82%
    08:00 +8°C° 0 mm 4 mps 750 mmHg 78%
    09:00 +10°C° 0 mm 3 mps 750 mmHg 75%
    10:00 +11°C° 0 mm 3 mps 750 mmHg 72%
    11:00 +12°C° 0 mm 2 mps 750 mmHg 70%
    12:00 +12°C° 0 mm 1 mps 750 mmHg 67%
    13:00 +13°C° 0 mm 1 mps 750 mmHg 65%
    14:00 +12°C° 0.3 mm 2 mps 750 mmHg 69%
    15:00 +12°C° 0.3 mm 2 mps 750 mmHg 72%
    16:00 +10°C° 0.3 mm 3 mps 749 mmHg 75%
    17:00 +10°C° 0.7 mm 4 mps 749 mmHg 78%
    18:00 +8°C° 0.7 mm 4 mps 749 mmHg 81%
    19:00 +8°C° 0.7 mm 5 mps 749 mmHg 84%
    20:00 +8°C° 1.8 mm 5 mps 749 mmHg 86%
    21:00 +7°C° 1.8 mm 5 mps 749 mmHg 88%
    22:00 +7°C° 1.8 mm 5 mps 749 mmHg 90%
    23:00 +7°C° 1 mm 5 mps 749 mmHg 90%

    24 February, Saturday

    Time Temperature Precipitation Wind Pressure Humidity
    00:00 +7°C° 1 mm 4 mps 749 mmHg 90%
    01:00 +7°C° 1 mm 4 mps 750 mmHg 90%
    02:00 +7°C° 0.5 mm 4 mps 750 mmHg 90%
    03:00 +7°C° 0.5 mm 4 mps 750 mmHg 90%
    04:00 +8°C° 0.5 mm 3 mps 750 mmHg 89%
    05:00 +8°C° 0.1 mm 3 mps 750 mmHg 89%
    06:00 +9°C° 0.1 mm 3 mps 751 mmHg 88%
    07:00 +9°C° 0.1 mm 2 mps 751 mmHg 88%
    08:00 +10°C° 0.1 mm 2 mps 752 mmHg 84%
    09:00 +10°C° 0.1 mm 3 mps 752 mmHg 81%
    10:00 +11°C° 0.1 mm 3 mps 752 mmHg 77%
    11:00 +12°C° 0 mm 3 mps 753 mmHg 76%
    12:00 +12°C° 0 mm 3 mps 753 mmHg 74%
    13:00 +12°C° 0 mm 3 mps 753 mmHg 73%
    14:00 +13°C° 0 mm 2 mps 753 mmHg 72%
    15:00 +13°C° 0 mm 2 mps 753 mmHg 72%
    16:00 +13°C° 0 mm 2 mps 753 mmHg 71%
    17:00 +12°C° 0 mm 1 mps 753 mmHg 74%
    18:00 +11°C° 0 mm 1 mps 754 mmHg 77%
    19:00 +10°C° 0 mm 1 mps 754 mmHg 80%
    20:00 +10°C° 0 mm 1 mps 754 mmHg 81%
    21:00 +10°C° 0 mm 1 mps 755 mmHg 81%
    22:00 +10°C° 0 mm 1 mps 755 mmHg 82%
    23:00 +8°C° 0.1 mm 2 mps 755 mmHg 83%

    25 February, Sunday

    Time Temperature Precipitation Wind Pressure Humidity
    00:00 +8°C° 0.1 mm 2 mps 755 mmHg 83%
    01:00 +8°C° 0.1 mm 2 mps 755 mmHg 84%
    02:00 +8°C° 0.1 mm 2 mps 754 mmHg 84%
    03:00 +8°C° 0.1 mm 2 mps 754 mmHg 85%
    04:00 +8°C° 0.1 mm 2 mps 754 mmHg 86%
    05:00 +8°C° 0.1 mm 2 mps 754 mmHg 85%
    06:00 +7°C° 0.1 mm 2 mps 753 mmHg 85%
    07:00 +7°C° 0.1 mm 3 mps 753 mmHg 85%
    08:00 +9°C° 0.1 mm 2 mps 753 mmHg 80%
    09:00 +10°C° 0.1 mm 2 mps 753 mmHg 75%
    10:00 +12°C° 0.1 mm 2 mps 753 mmHg 70%
    11:00 +13°C° 0.1 mm 2 mps 753 mmHg 67%
    12:00 +14°C° 0.1 mm 2 mps 753 mmHg 64%
    13:00 +14°C° 0.1 mm 2 mps 753 mmHg 62%
    14:00 +14°C° 0.3 mm 2 mps 752 mmHg 64%
    15:00 +13°C° 0.3 mm 3 mps 752 mmHg 66%
    16:00 +12°C° 0.3 mm 3 mps 752 mmHg 69%
    17:00 +11°C° 0.4 mm 3 mps 752 mmHg 72%
    18:00 +11°C° 0.4 mm 4 mps 752 mmHg 75%
    19:00 +10°C° 0.4 mm 4 mps 753 mmHg 78%
    20:00 +8°C° 0.1 mm 4 mps 753 mmHg 79%
    21:00 +8°C° 0.1 mm 4 mps 753 mmHg 80%
    22:00 +8°C° 0.1 mm 4 mps 753 mmHg 80%
    23:00 +7°C° 0.1 mm 4 mps 753 mmHg 81%

    26 February, Monday

    Time Temperature Precipitation Wind Pressure Humidity
    00:00 +7°C° 0.1 mm 4 mps 753 mmHg 82%
    01:00 +6°C° 0.1 mm 4 mps 753 mmHg 82%
    02:00 +7°C° 0.1 mm 3 mps 752 mmHg 82%
    03:00 +7°C° 0.1 mm 3 mps 752 mmHg 83%
    04:00 +7°C° 0.1 mm 3 mps 752 mmHg 83%
    05:00 +7°C° 0 mm 3 mps 752 mmHg 83%
    06:00 +6°C° 0 mm 2 mps 751 mmHg 82%
    07:00 +6°C° 0 mm 2 mps 751 mmHg 82%
    08:00 +7°C° 0 mm 2 mps 751 mmHg 79%
    09:00 +8°C° 0 mm 2 mps 751 mmHg 76%
    10:00 +9°C° 0 mm 2 mps 751 mmHg 73%
    11:00 +9°C° 0.1 mm 2 mps 751 mmHg 73%
    12:00 +9°C° 0.1 mm 3 mps 751 mmHg 72%
    13:00 +9°C° 0.1 mm 3 mps 751 mmHg 72%
    14:00 +9°C° 0.1 mm 3 mps 751 mmHg 72%
    15:00 +8°C° 0.1 mm 4 mps 751 mmHg 72%
    16:00 +8°C° 0.1 mm 4 mps 751 mmHg 72%
    17:00 +7°C° 0 mm 4 mps 751 mmHg 74%
    18:00 +6°C° 0 mm 4 mps 752 mmHg 75%
    19:00 +5°C° 0 mm 4 mps 752 mmHg 77%
    20:00 +5°C° 0 mm 4 mps 752 mmHg 77%
    21:00 +4°C° 0 mm 4 mps 752 mmHg 77%
    22:00 +4°C° 0 mm 4 mps 753 mmHg 77%
    23:00 +3°C° 0 mm 4 mps 753 mmHg 76%
    Show more